SB KEPS @ AMSAT $ORB08248.N 2Line Orbital Elements 08248.AMSAT
HR AMSAT ORBITAL ELEMENTS FOR AMATEUR SATELLITES IN NASA FORMAT FROM WA5QGD FORT WORTH,TX September 4, 2008 Send Subscribe/unsubscribe to KEPS at http://www.amsat.org/mailman/listinfo/keps BID: ORB08248.N
DECODE 2-LINE ELSETS WITH THE FOLLOWING KEY: 1 AAAAAU 00 0 0 BBBBB.BBBBBBBB .CCCCCCCC 00000-0 00000-0 0 DDDZ 2 AAAAA EEE.EEEE FFF.FFFF GGGGGGG HHH.HHHH III.IIII JJ.JJJJJJJJKKKKKZ KEY: A-CATALOGNUM B-EPOCHTIME C-DECAY D-ELSETNUM E-INCLINATION F-RAAN G-ECCENTRICITY H-ARGPERIGEE I-MNANOM J-MNMOTION K-ORBITNUM Z-CHECKSUM
TO ALL RADIO AMATEURS BT
AO-07 1 07530U 74089B 08247.58377066 -.00000027 00000-0 10000-3 0 2689 2 07530 101.4617 276.4448 0012178 108.7074 251.5331 12.53574007546805 AO-10 1 14129U 83058B 08247.38126761 -.00000222 00000-0 10000-3 0 5555 2 14129 026.0283 197.4263 5966679 153.9315 255.4605 02.05869484189716 UO-11 1 14781U 84021B 08247.56208991 .00000113 00000-0 22352-4 0 7583 2 14781 098.1483 282.7451 0009156 174.8847 185.2405 14.79661995315444 RS-15 1 23439U 94085A 08247.86068918 -.00000039 00000-0 10000-3 0 01588 2 23439 064.8189 007.8251 0146620 107.7181 253.9807 11.27552922563831 FO-29 1 24278U 96046B 08247.80750035 -.00000050 00000-0 -14197-4 0 8540 2 24278 098.5793 153.7864 0351137 012.1772 348.7587 13.52938974595024 SO-33 1 25509U 98061B 08246.28789264 .00000060 00000-0 32268-7 0 2729 2 25509 031.4323 240.4001 0354693 341.2127 017.5827 14.28221526514643 AO-40 1 26609U 00072B 08248.41862120 -.00000372 00000-0 10000-3 0 1133 2 26609 007.7519 062.7041 7932680 119.3622 339.6226 01.25585628 36038 VO-52 1 28650U 05017B 08247.21364239 .00000203 00000-0 32488-4 0 00226 2 28650 097.7820 311.6567 0026116 245.3235 114.5375 14.81494941180151 PO-63 1 29712U 07001D 08248.78778429 .00000289 00000-0 44703-4 0 7677 2 29712 097.8689 305.4559 0015208 120.4303 239.8410 14.80253509 89247 AO-16 1 20439U 90005D 08248.52727897 -.00000008 00000-0 12198-4 0 4091 2 20439 098.2388 224.5665 0010269 305.1182 054.9044 14.31801782972274 LO-19 1 20442U 90005G 08247.51337584 -.00000092 00000-0 -18903-4 0 3322 2 20442 098.2074 231.8989 0011202 304.8568 055.1548 14.32039308972283 AO-27 1 22825U 93061C 08248.51892816 -.00000074 00000-0 -12695-4 0 553 2 22825 098.3940 205.5967 0008877 032.9259 327.2494 14.29245380779101 IO-26 1 22826U 93061D 08248.69915209 -.00000009 00000-0 12901-4 0 7649 2 22826 098.3846 206.6437 0009550 027.7020 332.4669 14.29495420779225 GO-32 1 25397U 98043D 08248.83866503 .00000133 00000-0 77185-4 0 6885 2 25397 098.3582 280.0461 0001660 046.3325 313.7992 14.23148480527542 NO-44 1 26931U 01043C 08247.57538140 -.00000155 00000-0 -28127-4 0 09686 2 26931 067.0504 082.7180 0007281 264.8905 095.1341 14.29531139361611 SO-50 1 27607U 02058C 08248.32445849 -.00000087 00000-0 89372-5 0 6906 2 27607 064.5594 173.2946 0086263 264.2203 094.9062 14.71377113306614 CO-55 1 27844U 03031E 08247.54694445 .00000049 00000-0 43307-4 0 3879 2 27844 098.7183 254.7321 0008898 250.5163 109.5074 14.20594694268569 CO-57 1 27848U 03031J 08247.55558718 .00000030 00000-0 34276-4 0 3387 2 27848 098.7186 253.8228 0008985 254.1783 105.8436 14.20402777268535 AO-51 1 28375U 04025K 08247.53322406 -.00000004 00000-0 11770-4 0 1898 2 28375 098.0686 267.6878 0083290 275.8088 083.3606 14.40617046219683 CO-56 1 28941U 06005C 08248.80766562 .00036050 27565-5 24337-3 0 3470 2 28941 098.1163 010.6428 0155372 111.1916 250.6166 15.60595836142447 CP3 1 31128U 07012M 08248.65428321 -.00000046 00000-0 00000 0 0 4230 2 31128 098.0326 308.7060 0104193 089.1898 272.1239 14.51972382 73468 CP4 1 31132U 07012Q 08247.96319992 .00000027 00000-0 16117-4 0 04049 2 31132 098.0355 310.5869 0087446 084.3294 276.7859 14.55139307073409 CO-65 1 32785U 08021C 08247.47252667 .00000208 00000-0 33521-4 0 01491 2 32785 097.9866 307.1742 0013947 240.1820 119.8010 14.81388145018997 NOAA-10 1 16969U 86073A 08248.15611200 .00000062 00000-0 43342-4 0 2747 2 16969 098.7192 269.9587 0011841 314.8455 045.1763 14.27367600142706 NOAA-11 1 19531U 88089A 08247.94663034 .00000172 00000-0 11176-3 0 3070 2 19531 098.7973 336.1694 0011170 200.7779 159.2963 14.14876446 29043 NOAA-12 1 21263U 91032A 08248.51493250 .00000019 00000-0 26983-4 0 8205 2 21263 098.7701 250.4725 0011447 254.9789 105.0125 14.25544794899694 MET-3/5 1 21655U 91056A 08247.97332910 .00000051 00000-0 10000-3 0 04855 2 21655 082.5510 048.7073 0013125 171.6601 188.4741 13.17016488819959 MET-2/21 1 22782U 93055A 08247.52584783 -.00000022 00000-0 -33361-4 0 02412 2 22782 082.5448 049.4175 0024059 071.5432 288.8342 13.83630151757966 OKEAN-4 1 23317U 94066A 08248.69454483 .00000153 00000-0 15943-4 0 6853 2 23317 082.5360 240.8732 0020774 222.1232 137.8428 14.82632349750065 NOAA-14 1 23455U 94089A 08248.03564304 .00000267 00000-0 16494-3 0 2924 2 23455 098.9408 320.3017 0008521 281.6994 078.3189 14.13748802705499 NOAA-15 1 25338U 98030A 08248.01432580 .00000162 00000-0 87767-4 0 6092 2 25338 098.5602 237.8924 0010861 166.5633 193.5867 14.24723612536021 RESURS 1 25394U 98043A 08248.70972511 .00000014 00000-0 24137-4 0 145 2 25394 098.3784 289.0188 0001662 003.5919 356.5272 14.24169409527769 FENGYUN1 1 25730U 99025A 08247.95154990 .00000117 00000-0 94362-4 0 06180 2 25730 098.7262 221.0853 0020497 309.4396 050.4959 14.07765128480049 OKEAN-0 1 25860U 99039A 08247.47948538 -.00000002 00000-0 69933-5 0 04623 2 25860 097.7571 234.5888 0001721 055.0720 305.0660 14.73534081490927 NOAA-16 1 26536U 00055A 08248.04767338 -.00000019 00000-0 15070-4 0 834 2 26536 099.1622 238.9764 0010525 009.8240 350.3180 14.12494543409907 NOAA-17 1 27453U 02032A 08248.03034797 -.00000058 00000-0 -66346-5 0 786 2 27453 098.5270 310.3475 0010926 235.3552 124.6572 14.23998690322027 NOAA-18 1 28654U 05018A 08248.03780883 .00000418 00000-0 25587-3 0 5650 2 28654 098.8709 188.0109 0015373 091.0056 269.2918 14.11190699169593 HUBBLE 1 20580U 90037B 08248.89964023 .00000244 00000-0 59692-5 0 2143 2 20580 028.4674 163.3076 0003900 151.7280 208.3519 15.00403578806960 PO-34 1 25520U 98064B 08247.67098725 .00000320 00000-0 60235-5 0 00814 2 25520 028.4591 013.3168 0005096 065.0637 295.0483 15.17223509545093 ISS 1 25544U 98067A 08248.50206378 .00008290 00000-0 66815-4 0 1882 2 25544 051.6444 329.4627 0006906 080.0465 036.0927 15.71905787561013 CO-58 1 28895U 05043F 08248.43127026 .00000186 00000-0 48526-4 0 1111 2 28895 098.0884 140.5296 0018271 158.1570 202.0434 14.59693688152040 FALCON 1 30776U 07006E 08247.82487636 .00000194 00000-0 17173-4 0 3891 2 30776 035.4342 036.5543 0002129 315.2080 044.8463 15.03043045 81985 MAST 1 31126U 07012K 08247.58511346 .00000083 00000-0 29159-4 0 4117 2 31126 098.0320 308.8601 0096045 089.2234 272.0017 14.53443258 73407 CAPE1 1 31130U 07012P 08247.89014983 .00000031 00000-0 17777-4 0 04061 2 31130 098.0340 307.9828 0104086 091.4943 269.8149 14.51988341073148 COMPASS 1 32787U 08021E 08247.46769824 .00000217 00000-0 34529-4 0 01398 2 32787 097.9829 307.1107 0014870 243.1087 116.8605 14.81454013018992 AAUSAT2 1 32788U 08021F 08247.93103919 .00000026 00000-0 10219-4 0 01453 2 32788 097.9829 307.5896 0013970 239.3718 120.6119 14.81564107019068 DO-64 1 32789U 08021G 08248.81943163 .00000461 00000-0 65697-4 0 1481 2 32789 097.9858 308.5049 0014662 236.4933 123.4876 14.81463688 19195 CO-66 1 32791U 08021J 08247.41237920 .00000382 00000-0 55836-4 0 01347 2 32791 097.9852 307.0731 0014983 240.1672 119.8059 14.81309830018955 RS-30 1 32953U 08025A 08247.56568081 .00000010 00000-0 00000-0 0 00999 2 32953 082.4965 074.8448 0019887 083.3966 276.9395 12.42997232012781 /EX